Location: *
(58.4167°N, 22.5000°E)
Time: 20:12:11
(UTC+00:00)

Cosmos 2058 Rocket - Pass Details

Date: 22 September 2019
Orbit: 610 x 640 km, 82.5° (Epoch: 20 October)

Event Time Altitude Azimuth Distance (km) Brightness Sun altitude
Exits shadow 20:33:14 50° 3° (N) 797 3.8 -27.5°
Drops below altitude 10° 20:36:34 10° 12° (NNE) 2,002 6.2 -27.8°
Sets 20:38:48 0° 14° (NNE) 2,908 7.2 -27.9°
